Location: Lake Harris Campground
(43.9775°N, 74.1317°W)
Time: 03:58:20
(UTC-05:00)

ISS - All Passes

Search period start: 27 February 2017 00:00
Search period end: 09 March 2017 00:00
Orbit: 399 x 408 km, 51.6° (Epoch: 27 February)

Date Brightness Start Highest point End Pass type
(mag) Time Alt. Az. Time Alt. Az. Time Alt. Az.
27 Feb - 06:15:53 10° S 06:17:55 15° SE 06:19:58 10° E daylight
27 Feb - 07:50:43 10° WSW 07:54:01 75° NNW 07:57:19 10° NE daylight
27 Feb - 09:28:06 10° WNW 09:30:52 24° N 09:33:39 10° NE daylight
27 Feb - 11:05:21 10° NW 11:08:04 23° N 11:10:48 10° ENE daylight
27 Feb - 12:41:42 10° NW 12:44:59 65° NNE 12:48:15 10° ESE daylight
27 Feb - 14:18:49 10° W 14:21:09 18° SW 14:23:27 10° S daylight
28 Feb - 06:58:13 10° SW 07:01:29 62° SE 07:04:46 10° ENE daylight
28 Feb - 08:35:11 10° W 08:38:08 29° NNW 08:41:06 10° NE daylight
28 Feb - 10:12:41 10° NW 10:15:18 21° N 10:17:54 10° NE daylight
28 Feb - 11:49:12 10° NW 11:52:21 41° NNE 11:55:30 10° E daylight
28 Feb - 13:25:46 10° WNW 13:28:46 32° SW 13:31:44 10° SSE daylight
01 Mar - 06:06:00 10° SSW 06:09:01 33° SE 06:12:02 10° ENE visible
01 Mar - 07:42:18 10° W 07:45:26 40° NNW 07:48:35 10° NE daylight
01 Mar - 09:19:53 10° NW 09:22:30 21° N 09:25:07 10° NE daylight
01 Mar - 10:56:41 10° NW 10:59:40 30° NNE 11:02:37 10° E daylight
01 Mar - 12:33:02 10° WNW 12:36:18 60° SW 12:39:32 10° SE daylight
02 Mar - 05:14:14 10° S 05:16:37 19° SE 05:19:00 10° E visible
02 Mar - 06:49:31 10° WSW 06:52:47 63° NNW 06:56:04 10° NE daylight
02 Mar - 08:26:58 10° WNW 08:29:42 23° N 08:32:25 10° NE daylight
02 Mar - 10:04:07 10° NW 10:06:54 24° NNE 10:09:40 10° ENE daylight
02 Mar - 11:40:26 10° WNW 11:43:44 77° NNE 11:47:01 10° ESE daylight
02 Mar - 13:17:51 10° W 13:19:49 15° SW 13:21:46 10° S daylight
03 Mar - 04:24:00 10° SE 04:24:16 10° SE 04:24:33 10° SE visible
03 Mar - 05:56:54 10° SW 06:00:11 75° SE 06:03:30 10° ENE visible
03 Mar - 07:34:01 10° WNW 07:36:54 27° NNW 07:39:48 10° NE daylight
03 Mar - 09:11:27 10° NW 09:14:05 21° N 09:16:43 10° ENE daylight
03 Mar - 10:47:53 10° NW 10:51:06 47° NNE 10:54:18 10° E daylight
03 Mar - 12:24:35 10° WNW 12:27:26 27° SW 12:30:15 10° SSE daylight
04 Mar - 05:04:33 10° SSW 05:07:39 40° SE 05:10:47 10° ENE visible
04 Mar - 06:41:04 10° W 06:44:09 36° NNW 06:47:15 10° NE daylight
04 Mar - 08:18:39 10° NW 08:21:15 21° N 08:23:51 10° NE daylight
04 Mar - 09:55:21 10° NW 09:58:23 33° NNE 10:01:24 10° E daylight
04 Mar - 11:31:45 10° WNW 11:34:57 49° SW 11:38:08 10° SE daylight
05 Mar - 04:12:34 10° S 04:15:12 22° SE 04:17:51 10° E visible
05 Mar - 05:48:12 10° WSW 05:51:26 54° NNW 05:54:42 10° NE visible
05 Mar - 07:25:44 10° WNW 07:28:25 22° N 07:31:05 10° NE daylight
05 Mar - 09:02:45 10° NW 09:05:35 26° NNE 09:08:25 10° ENE daylight
05 Mar - 10:39:04 10° WNW 10:42:23 89° SW 10:45:40 10° ESE daylight
05 Mar - 12:16:56 10° WSW 12:18:22 12° SW 12:19:48 10° SSW daylight
06 Mar - 03:21:21 10° SSE 03:22:48 12° SE 03:24:14 10° ESE visible
06 Mar - 04:55:30 10° WSW 04:58:47 89° SE 05:02:06 10° ENE visible
06 Mar - 06:32:44 10° WNW 06:35:34 26° NNW 06:38:24 10° NE daylight
06 Mar - 08:10:05 10° NW 08:12:45 22° N 08:15:26 10° ENE daylight
06 Mar - 09:46:28 10° NW 09:49:43 54° NNE 09:52:57 10° ESE daylight
06 Mar - 11:23:20 10° W 11:25:58 22° SW 11:28:36 10° S daylight
07 Mar - 04:03:00 10° SW 04:06:12 49° SE 04:09:24 10° ENE visible
07 Mar - 05:39:44 10° W 05:42:45 33° NNW 05:45:48 10° NE visible
07 Mar - 07:17:17 10° NW 07:19:53 21° N 07:22:29 10° NE daylight
07 Mar - 08:53:53 10° NW 08:56:59 36° NNE 09:00:04 10° E daylight
07 Mar - 10:30:21 10° WNW 10:33:28 40° SW 10:36:35 10° SSE daylight
08 Mar - 03:10:51 10° SSW 03:13:40 27° SE 03:16:30 10° ENE visible
08 Mar - 04:46:48 10° W 04:49:59 47° NNW 04:53:12 10° NE visible
08 Mar - 06:24:21 10° WNW 06:27:00 21° N 06:29:39 10° NE daylight
08 Mar - 08:01:16 10° NW 08:04:10 27° NNE 08:07:04 10° ENE daylight
08 Mar - 09:37:35 10° WNW 09:40:53 75° SW 09:44:10 10° SE daylight
08 Mar - 11:16:32 10° SW 11:16:48 10° SW 11:17:03 10° SW daylight
